1389657630812,162.229
1389657690812,162.387
1389657750812,161.968
1389657810812,161.988
1389657870812,162.479
1389657930812,162.433
1389657990812,162.521
1389658050812,162.096
1389658110812,162.622
1389658170812,162.159
1389658230812,162.144
1389658290812,162.318
1389658350812,162.038
1389658410812,162.188
1389658470812,162.239
1389658530812,162.212
1389658590812,162.011
1389658650812,161.967
1389658710812,162.131
1389658770812,162.192
1389658830812,162.124
1389658890812,162.262
1389658950812,162.239
1389659010812,162.087
1389659070812,162.249
1389659130812,162.534
1389659190812,162.048
1389659250812,162.301
1389659310812,162.274
1389659370812,162.385
1389659430812,162.694
1389659490812,162.286
1389659550812,162.480
1389659610812,162.354
1389659670812,162.293
1389659730812,162.441
1389659790812,162.338
1389659850812,162.363
1389659910812,162.233
1389659970812,162.295
1389660030812,162.622
1389660090812,162.530
1389660150812,162.656
1389660210812,162.334
1389660270812,162.481
1389660330812,162.363
1389660390812,162.606
1389660450812,162.735
1389660510812,162.841
1389660570812,162.618
1389660630812,162.576
1389660690812,162.580
1389660750812,162.830
1389660810812,162.950
1389660870812,162.936
1389660930812,162.868
1389660990812,162.797
1389661050812,162.454
1389661110812,162.821
1389661170812,163.055
1389661230822,163.300
1389661290822,162.837
1389661350822,163.122
1389661410822,163.038
1389661470822,163.073
1389661530822,162.930
1389661590822,163.374
1389661650822,163.064
1389661710822,163.425
1389661770822,162.865
1389661830822,162.808
1389661890822,163.227
1389661950822,162.552
1389662010822,163.142
1389662070822,162.466
1389662130822,162.947
1389662190822,163.007
1389662250822,163.071
1389662310822,162.951
1389662370822,163.205
1389662430822,162.763
1389662490822,162.723
1389662550822,162.839
1389662610822,162.642
1389662670822,163.185
1389662730822,162.989
1389662790822,162.759
1389662850822,163.198
1389662910822,163.065
1389662970822,162.928
1389663030822,162.999
1389663090822,163.213
1389663150822,163.210
1389663210822,162.729
1389663270822,162.911
1389663330822,162.756
1389663390822,162.704
1389663450822,163.063
1389663510822,162.834
1389663570822,162.759
1389663630822,163.138
1389663690822,162.857
1389663750822,163.026
1389663810822,162.957
1389663870822,162.646
1389663930822,163.045
1389663990822,162.741
1389664050822,163.053
1389664110822,162.876
1389664170822,163.403
1389664230822,162.780
1389664290822,162.954
1389664350822,163.173
1389664410822,162.835
1389664470822,163.117
1389664530822,163.224
1389664590822,163.126
1389664650822,163.196
1389664710822,163.171
1389664770822,163.239
1389664830832,163.059
1389664890832,163.641
1389664950832,163.382
1389665010832,163.447
1389665070832,162.972
1389665130832,163.337
1389665190832,163.221
1389665250832,163.040
1389665310832,163.406
1389665370832,162.770
1389665430832,163.373
1389665490832,163.262
1389665550832,163.806
1389665610832,163.362
1389665670832,163.133
1389665730832,163.227
1389665790832,163.243
1389665850832,163.425
1389665910832,163.757
1389665970832,163.566
1389666030832,163.455
1389666090832,163.257
1389666150832,163.477
1389666210832,163.170
1389666270832,163.305
1389666330832,163.540
1389666390832,163.438
1389666450832,163.295
1389666510832,163.442
1389666570832,163.529
1389666630832,163.424
1389666690832,163.807
1389666750832,163.669
1389666810832,163.525
1389666870832,163.608
1389666930832,163.533
1389666990832,163.620
1389667050832,163.792
1389667110832,163.302
1389667170832,163.352
1389667230832,163.602
1389667290832,163.490
1389667350832,163.677
1389667410832,163.367
1389667470832,163.425
1389667530832,163.201
1389667590832,163.203
1389667650832,163.529
1389667710832,163.662
1389667770832,163.412
1389667830832,163.651
1389667890832,163.479
1389667950832,163.783
1389668010832,163.351
1389668070832,163.376
1389668130832,163.600
1389668190832,163.637
1389668250832,163.674
1389668310832,163.267
1389668370832,163.974
1389668430841,163.712
1389668490841,163.379
1389668550841,163.259
1389668610841,163.483
1389668670841,163.494
1389668730841,163.353
1389668790841,163.533
1389668850841,163.646
1389668910841,163.525
1389668970841,163.671
1389669030841,163.774
1389669090841,163.776
1389669630841,163.716
1389669690841,163.989
1389669750841,163.638
1389669810841,163.827
1389669870841,163.890
1389669930841,164.194
1389669990841,165.163
1389670050841,165.303
1389670110841,164.985
1389670170841,164.511
1389670230841,164.190
1389670290841,163.931
1389670350841,164.308
1389670410841,163.852
1389670470841,164.051
1389670530841,164.525
1389670590841,164.047
1389670650841,163.942
1389670710841,164.086
1389670770841,164.220
1389670830841,164.408
1389670890841,164.013
1389670950841,163.885
1389671010841,163.960
1389671070841,163.982
1389671130841,164.019
1389671190841,164.261
1389671250841,164.088
1389671310841,164.150
1389671370841,163.674
1389671430841,164.092
1389671490841,163.956
1389671550841,164.098
1389671610841,164.190
1389671670841,164.156
1389671730841,164.001
1389671790841,164.176
1389671850841,163.955
1389671910841,163.929
1389671970841,164.046
1389672030851,164.079
1389672090851,164.098
1389672150851,163.980
1389672210851,163.945
1389672270851,163.839
1389672330851,163.765
1389672390851,164.014
1389672450851,163.875
1389672510851,163.994
1389672570851,164.023
1389672630851,163.728
1389672690851,163.851
1389672750851,163.727
1389672810851,163.866
1389672870851,163.593
1389672930851,164.055
1389672990851,163.773
1389673050851,163.985
1389673110851,163.804
1389673170851,163.751
1389673230851,164.010
1389673290851,164.006
1389673350851,163.830
1389673410851,163.931
1389673470851,163.725
1389673530851,163.606
1389673590851,163.561
1389673650851,163.825
1389673710851,163.876
1389673770851,163.975
1389673830851,163.725
1389673890851,163.727
1389673950851,163.793
1389674010851,163.874
1389674070851,163.634
1389674130851,164.003
1389674190851,163.836
1389674250851,163.653
1389674310851,163.208
1389674370851,163.794
1389674430851,163.688
1389674490851,163.667
1389674550851,163.926
1389674610851,163.877
1389674670851,163.859
1389674730851,163.748
1389674790851,163.898
1389674850851,163.923
1389674910851,164.009
1389674970851,163.862
1389675030851,163.633
1389675090851,163.954
1389675150851,164.023
1389675210851,163.714
1389675270851,163.682
1389675330851,163.955
1389675390851,164.039
1389675450851,164.151
1389675510851,163.701
1389675570851,164.026
1389675630861,163.931
1389675690861,164.195
1389675750861,164.011
1389675810861,163.859
1389675870861,164.345
1389675930861,163.926
1389675990861,164.300
1389676050861,164.383
1389676110861,164.152
1389676170861,164.453
1389676230861,164.414
1389676290861,164.211
1389676350861,164.440
1389676410861,164.591
1389676470861,164.650
1389676530861,164.605
1389676590861,164.966
1389676650861,164.653
1389676710861,164.337
1389676770861,164.557
1389676830861,164.577
1389676890861,164.388
1389676950861,164.423
1389677010861,164.629
1389677070861,164.746
1389677130861,164.558
1389677190861,164.978
1389677250861,164.799
1389677310861,164.884
1389677370861,164.852
1389677430861,164.934
1389677490861,165.087
1389677550861,165.033
1389677610861,165.215
1389677670861,164.964
1389677730861,164.958
1389677790861,164.660
1389677850861,165.011
1389677910861,165.217
1389677970861,165.059
1389678030861,165.022
1389678090861,165.158
1389678150861,164.864
1389678210861,164.854
1389678270861,165.388
1389678330861,165.495
1389678390861,165.066
1389678450861,165.161
1389678510861,165.148
1389678570861,165.306
1389678630861,165.255
1389678690861,165.007
1389678750861,164.842
1389678810861,165.068
1389678870861,165.078
1389678930861,165.104
1389678990861,165.210
1389679050861,165.394
1389679110861,164.985
1389679170861,165.247
1389679230872,165.330
1389679290872,165.597
1389679350872,164.994
1389679410872,165.194
1389679470872,164.929
1389679530872,165.201
1389679590872,165.320
1389679650872,164.989
1389679710872,164.863
1389679770872,165.054
1389679830872,165.716
1389679890872,165.302
1389679950872,165.373
1389680010872,165.298
1389680070872,165.050
1389680130872,165.199
1389680190872,165.400
1389680250872,165.391
1389680310872,165.502
1389680370872,165.275
1389680430872,165.354
1389680490872,165.977
1389680550872,165.588
1389680610872,165.358
1389680670872,165.819
1389680730872,165.601
1389680790872,165.798
1389680850872,165.857
1389680910872,165.612
1389680970872,165.450
1389681030872,165.675
1389681090872,165.183
1389681150872,165.749
1389681210872,165.894
1389681270872,165.791
1389681330872,165.848
1389681390872,165.628
1389681450872,165.997
1389681510872,165.977
1389681570872,166.126
1389681630872,165.894
1389681690872,165.897
1389681750872,165.819
1389681810872,166.237
1389681870872,165.768
1389681930872,166.026
1389681990872,165.722
1389682050872,165.802
1389682110872,165.740
1389682170872,166.248
1389682230872,166.094
1389682290872,165.869
1389682350872,165.958
1389682410872,165.884
1389682470872,166.266
1389682530872,166.121
1389682590872,165.832
1389682650872,166.017
1389682710872,166.068
1389682770872,165.903
1389682830882,165.957
1389682890882,165.894
1389682950882,166.291
1389683010882,165.734
1389683070882,166.117
1389683130882,166.493
1389683190882,166.428
1389683250882,166.162
1389683310882,166.086
1389683370882,166.255
1389683430882,166.098
1389683490882,166.432
1389683550882,166.255
1389683610882,166.096
1389683670882,166.025
1389683730882,166.117
1389683790882,166.282
1389683850882,165.962
1389683910882,166.166
1389683970882,165.691
1389684030882,166.090
1389684090882,166.293
1389684150882,166.278
1389684210882,166.582
1389684270882,166.247
1389684330882,165.938
1389684390882,165.485
1389684450882,165.557
1389684510882,166.120
1389684570882,166.001
1389684630882,166.025
1389684690882,165.891
1389684750882,166.427
1389684810882,165.884
1389684870882,165.940
1389684930882,165.770
1389684990882,166.279
1389685050882,166.254
1389685110882,165.930
1389685170882,165.970
1389685230882,166.152
1389685290882,165.915
1389685350882,166.135
1389685410882,165.904
1389685470882,166.126
1389685530882,166.084
1389685590882,166.128
1389685650882,165.848
1389685710882,166.167
1389685770882,166.089
1389685830882,165.939
1389685890882,166.296
1389685950882,165.868
1389686010882,165.769
1389686070882,165.886
1389686130882,166.048
1389686190882,165.943
1389686250882,166.143
1389686310882,166.255
1389686370882,165.988
1389686430893,166.490
1389686490893,165.808
1389686550893,165.923
1389686610893,165.910
1389686670893,165.702
1389686730893,166.150
1389686790893,165.757
1389686850893,165.842
1389686910893,166.003
1389686970893,165.612
1389687030893,165.927
1389687090893,166.006
1389687150893,166.048
1389687210893,166.051
1389687270893,165.715
1389687330893,165.915
1389687390893,165.794
1389687450893,165.941
1389687510893,165.992
1389687570893,166.003
1389687630893,165.997
1389687690893,165.992
1389687750893,165.968
1389687810893,165.974
1389687870893,165.976
1389687930893,165.979
1389687990893,166.074
1389688050893,166.025
1389688110893,166.354
1389688170893,166.009
1389688230893,166.120
1389688290893,165.954
1389688350893,165.874
1389688410893,165.603
1389688470893,165.640
1389688530893,165.860
1389688590893,166.070
1389688650893,165.700
1389688710893,165.744
1389688770893,165.851
1389688830893,165.840
1389688890893,166.081
1389688950893,165.581
1389689010893,165.619
1389689070893,165.582
1389689130893,165.844
1389689190893,165.531
1389689250893,165.344
1389689310893,165.541
1389689370893,165.594
1389689430893,165.764
1389689490893,165.516
1389689550893,165.631
1389689610893,165.568
1389689670893,165.402
1389689730893,165.511
1389689790893,164.927
1389689850893,165.189
1389689910893,165.265
1389689970893,165.001
1389690030903,165.219
1389690090903,165.112
1389690150903,164.787
1389690210903,164.903
1389690270903,165.055
1389690330903,164.873
1389690390903,165.055
1389690450903,165.504
1389690510903,165.138
1389690570903,164.981
1389690630903,165.023
1389690690903,164.760
1389690750903,164.880
1389690810903,164.611
1389690870903,164.808
1389690930903,165.044
1389690990903,164.603
1389691050903,164.849
1389691110903,164.889
1389691170903,164.944
1389691230903,164.682
1389691290903,164.689
1389691350903,164.627
1389691410903,164.817
1389691470903,164.589
1389691530903,164.464
1389691590903,164.414
1389691650903,164.493
1389691710903,164.615
1389691770903,164.694
1389691830903,164.484
1389691890903,164.146
1389691950903,164.336
1389692010903,164.640
1389692070903,164.499
1389692130903,164.642
1389692190903,164.255
1389692250903,164.221
1389692310903,164.423
1389692370903,164.602
1389692430903,164.621
1389692490903,164.625
1389692550903,164.319
1389692610903,164.295
1389692670903,164.472
1389692730903,164.671
1389692790903,164.702
1389692850903,164.748
1389692910903,164.307
1389692970903,164.705
1389693030903,164.562
1389693090903,164.577
1389693150903,164.307
1389693210903,164.297
1389693270903,164.444
1389693330903,164.391
1389693390903,164.635
1389693450903,164.492
1389693510903,164.210
1389693570903,164.747
1389693630914,164.622
1389693690914,164.704
1389693750914,164.399
1389693810914,164.784
1389693870914,164.645
1389693930914,164.701
1389693990914,164.660
1389694050914,164.778
1389694110914,164.941
1389694170914,164.200
1389694230914,164.511
1389694290914,164.799
1389694350914,164.658
1389694410914,164.521
1389694470914,164.537
1389694530914,164.216
1389694590914,164.754
1389694650914,164.634
1389694710914,164.302
1389694770914,164.621
1389694830914,164.502
1389694890914,164.594
1389694950914,164.409
1389695010914,164.516
1389695070914,164.420
1389695130914,164.358
1389695190914,164.395
1389695250914,164.471
1389695310914,164.772
1389695370914,164.388
1389695430914,164.685
1389695490914,164.504
1389695550914,164.514
1389695610914,164.512
1389695670914,164.393
1389695730914,164.497
1389695790914,164.372
1389695850914,164.359
1389695910914,164.230
1389695970914,164.418
1389696030914,164.210
1389696090914,164.017
1389696150914,164.204
1389696210914,164.346
1389696270914,164.629
1389696330914,164.101
1389696390914,164.481
1389696450914,164.357
1389696510914,164.311
1389696570914,164.316
1389696630914,164.651
1389696690914,164.283
1389696750914,164.323
1389696810914,164.210
1389696870914,164.380
1389696930914,164.113
1389696990914,164.345
1389697050914,164.500
1389697110914,164.581
1389697170914,164.559
1389697230925,164.352
1389697290925,164.442
1389697350925,164.678
1389697410925,164.370
1389697470925,164.663
1389697530925,164.637
1389697590925,164.375
1389697650925,164.308
1389697710925,164.903
1389697770925,164.819
1389697830925,165.102
1389697890925,164.836
1389697950925,164.733
1389698010925,164.726
1389698070925,164.816
1389698130925,164.669
1389698190925,165.384
1389698250925,165.070
1389698310925,164.935
1389698370925,165.250
1389698430925,164.620
1389698490925,165.279
1389698550925,165.047
1389698610925,164.940
1389698670925,165.399
1389698730925,164.932
1389698790925,165.212
1389698850925,165.011
1389698910925,165.363
1389698970925,164.838
1389699030925,164.956
1389699090925,165.228
1389699150925,165.364
1389699210925,164.891
1389699270925,164.757
1389699330925,165.168
1389699390925,165.177
1389699450925,165.011
1389699510925,164.904
1389699570925,165.286
1389699630925,165.079
1389699690925,164.996
1389699750925,165.139
1389699810925,165.090
1389699870925,165.265
1389699930925,165.178
1389699990925,164.966
1389700050925,165.132
1389700110925,165.150
1389700170925,164.901
1389700230925,165.369
1389700290925,165.319
1389700350925,165.108
1389700410925,165.533
1389700470925,165.453
1389700530925,165.119
1389700590925,165.337
1389700650925,165.340
1389700710925,165.429
1389700770925,165.532
1389700830935,165.477
1389700890935,165.544
1389700950935,165.501
1389701010935,165.431
1389701070935,165.420
1389701130935,165.699
1389701190935,165.486
1389701250935,165.770
1389701310935,165.583
1389701370935,165.396
1389701430935,165.513
1389701490935,165.638
1389701550935,165.536
1389701610935,165.875
1389701670935,165.684
1389701730935,165.733
1389701790935,165.551
1389701850935,165.524
1389701910935,165.513
1389701970935,165.815
1389702030935,165.422
1389702090935,165.584
1389702150935,165.683
1389702210935,165.639
1389702270935,165.536
1389702330935,165.625
1389702390935,165.751
1389702450935,165.801
1389702510935,165.657
1389702570935,165.881
1389702630935,165.134
1389702690935,165.705
1389702750935,166.102
1389702810935,165.607
1389702870935,165.537
1389702930935,165.486
1389702990935,165.535
1389703050935,165.472
1389703110935,165.623
1389703170935,165.503
1389703230935,165.315
1389703290935,165.589
1389703350935,165.400
1389703410935,165.248
1389703470935,165.221
1389703530935,164.973
1389703590935,164.920
1389703650935,165.201
1389703710935,165.173
1389703770935,165.233
1389703830935,165.391
1389703890935,165.469
1389703950935,164.972
1389704010935,165.069
1389704070935,165.530
1389704130935,165.030
1389704190935,164.881
1389704250935,165.236
1389704310935,165.133
1389704370935,165.411
1389704430946,165.274
1389704490946,165.136
1389704550946,165.286
1389704610946,165.529
1389704670946,165.332
1389704730946,165.139
1389704790946,165.047
1389704850946,165.132
1389704910946,165.227
1389704970946,165.241
1389705030946,165.119
1389705090946,165.253
1389705150946,165.597
1389705210946,165.689
1389705270946,165.223
1389705330946,165.632
1389705390946,165.320
1389705450946,165.245
1389705510946,165.443
1389705570946,165.738
1389705630946,165.301
1389705690946,165.551
1389705750946,165.535
1389705810946,165.207
1389705870946,165.570
1389705930946,165.162
1389705990946,165.518
1389706050946,165.594
1389706110946,165.239
1389706170946,165.748
1389706230946,165.605
1389706290946,165.645
1389706350946,165.630
1389706410946,165.909
1389706470946,165.694
1389706530946,165.960
1389706590946,165.398
1389706650946,165.478
1389706710946,165.664
1389706770946,165.664
1389706830946,165.567
1389706890946,165.508
1389706950946,165.723
1389707010946,165.595
1389707070946,165.647
1389707130946,165.958
1389707190946,165.681
1389707250946,165.970
1389707310946,165.762
1389707370946,165.634
1389707430946,165.776
1389707490946,165.888
1389707550946,165.825
1389707610946,165.826
1389707670946,166.233
1389707730946,165.709
1389707790946,165.901
1389707850946,165.813
1389707910946,165.771
1389707970946,166.018
1389708030957,165.749
1389708090957,165.580
1389708150957,166.063
1389708210957,165.930
1389708270957,165.710
1389708330957,165.928
1389708390957,166.138
1389708450957,165.902
1389708510957,165.797
1389708570957,165.670
1389708630957,165.734
1389708690957,165.263
1389708750957,165.705
1389708810957,165.745
1389708870957,165.542
1389708930957,165.835
1389708990957,165.835
1389709050957,165.641
1389709110957,165.413
1389709170957,165.554
1389709230957,165.570
1389709290957,165.296
1389709350957,165.748
1389709410957,166.040
1389709470957,165.530
1389709530957,165.430
1389709590957,165.711
1389709650957,165.658
1389709710957,165.763
1389709770957,165.787
1389709830957,165.922
1389709890957,165.887
1389709950957,165.582
1389710010957,165.831
1389710070957,165.279
1389710130957,165.943
1389710190957,165.767
1389710250957,165.748
1389710310957,165.672
1389710370957,165.648
1389710430957,165.993
1389710490957,165.485
1389710550957,165.395
1389710610957,165.604
1389710670957,165.885
1389710730957,165.524
1389710790957,165.652
1389710850957,165.515
1389710910957,165.757
1389710970957,165.367
1389711030957,165.573
1389711090957,165.376
1389711150957,165.801
1389711210957,165.420
1389711270957,165.740
1389711330957,165.421
1389711390957,165.531
1389711450957,165.562
1389711510957,165.596
1389711570957,165.303
1389711630967,165.491
1389711690967,165.147
1389711750967,165.427
1389711810967,165.226
1389711870967,165.421
1389711930967,165.359
1389711990967,165.480
1389712050967,165.721
1389712110967,165.476
1389712170967,165.244
1389712230967,165.726
1389712290967,165.092
1389712350967,165.479
1389712410967,165.240
1389712470967,165.490
1389712530967,165.685
1389712590967,165.645
1389712650967,165.504
1389712710967,165.245
1389712770967,165.699
1389712830967,165.447
1389712890967,165.239
1389712950967,165.307
1389713010967,165.341
1389713070967,165.509
1389713130967,165.293
1389713190967,165.191
1389713250967,165.462
1389713310967,165.109
1389713370967,165.086
1389713430967,164.767
1389713490967,164.776
1389713550967,165.082
1389713610967,165.044
1389713670967,165.117
1389713730967,164.701
1389713790967,165.166
1389713850967,165.087
1389713910967,164.741
1389713970967,164.729
1389714030967,164.764
1389714090967,164.474
1389714150967,164.560
1389714210967,164.550
1389714270967,164.700
1389714330967,164.573
1389714390967,164.192
1389714450967,164.477
1389714510967,164.645
1389714570967,164.482
1389714630967,164.226
1389714690967,164.384
1389714750967,164.219
1389714810967,164.284
1389714870967,164.329
1389714930967,164.329
1389714990967,163.979
1389715050967,164.410
1389715110967,164.256
1389715170967,164.094
1389715230978,164.555
1389715290978,164.657
1389715350978,165.064
1389715410978,164.938
1389715470978,165.143
1389715530978,164.639
1389715590978,164.248
1389715650978,164.292
1389715710978,164.267
1389715770978,164.520
1389715830978,164.440
1389715890978,164.251
1389715950978,164.013
1389716010978,163.992
1389716070978,164.291
1389716130978,163.862
1389716190978,163.939
1389716250978,163.889
1389716310978,164.052
1389716370978,163.962
1389716430978,163.802
1389716490978,164.092
1389716550978,163.585
1389716610978,163.974
1389716670978,163.991
1389716730978,163.577
1389716790978,163.923
1389716850978,163.752
1389716910978,163.879
1389716970978,164.193
1389717030978,164.160
1389717090978,163.945
1389717150978,163.925
1389717210978,163.946
1389717270978,163.792
1389717330978,163.958
1389717390978,163.921
1389717450978,163.552
1389717510978,163.960
1389717570978,164.267
1389717630978,164.127
1389717690978,163.885
1389717750978,164.133
1389717810978,163.925
1389717870978,164.141
1389717930978,164.084
1389717990978,163.935
1389718050978,163.646
1389718110978,163.890
1389718170978,163.893
1389718230978,163.972
1389718290978,164.217
1389718350978,163.727
1389718410978,163.803
1389718470978,163.749
1389718530978,163.896
1389718590978,164.183
1389718650978,164.005
1389718710978,164.415
1389718770978,164.069
1389718830988,164.165
1389718890988,164.335
1389718950988,164.035
1389719010988,164.087
1389719070988,164.103
1389719130988,164.219
1389719190988,164.296
1389719250988,164.266
1389719310988,164.204
1389719370988,164.246
1389719430988,164.053
1389719490988,164.199
1389719550988,164.671
1389719610988,164.301
1389719670988,164.056
1389719730988,164.196
1389719790988,164.269
1389719850988,164.132
1389719910988,164.075
1389719970988,163.826
1389720030988,164.272
1389720090988,163.982
1389720150988,163.989
1389720210988,163.882
1389720270988,163.972
1389720330988,163.861
1389720390988,164.166
1389720450988,163.772
1389720510988,164.223
1389720570988,163.951
1389720630988,163.382
1389720690988,163.682
1389720750988,163.942
1389720810988,163.911
1389720870988,163.740
1389720930988,163.593
1389720990988,163.571
1389721050988,163.649
1389721110988,163.766
1389721170988,163.690
1389721230988,163.869
1389721290988,163.960
1389721350988,163.536
1389721410988,164.247
1389721470988,164.140
1389721530988,164.167
1389721590988,163.855
1389721650988,163.762
1389721710988,163.912
1389721770988,163.679
1389721830988,163.969
1389721890988,163.999
1389721950988,163.587
1389722010988,163.510
1389722070988,163.684
1389722130988,163.589
1389722190988,163.630
1389722250988,163.474
1389722310988,163.583
1389722370988,163.392
1389722430998,163.818
1389722490998,163.805
1389722550998,163.443
1389722610998,163.653
1389722670998,163.861
1389722730998,163.598
1389722790998,163.993
1389722850998,163.710
1389722910998,163.835
1389722970998,163.756
1389723030998,163.900
1389723090998,163.761
1389723150998,163.958
1389723210998,164.208
1389723270998,164.170
1389723330998,163.555
1389723390998,163.726
1389723450998,163.759